Wind_Speed
13 14 14 14 14 14 14 14 15 15 15 15 14 14 14 14 14 13 12 12 11 11 11 11 11 11 11 11 11 11 11 11 11 12 12 11 11 11 12 14 14 14 16 17 16 15 15 14 14 15 16 15 15 16 17 19 19 18 17 17 18 18 16 13 15 12 7 8 11 11 7 6 4 8 4 3 3 3 2 6 7 7 9 11 12 10 10 11
13 13 13 13 13 13 13 14 14 15 15 14 14 14 14 14 14 13 13 12 11 11 11 11 11 11 10 10 11 11 10 10 10 11 10 9 11 10 11 13 13 13 14 16 15 15 15 15 15 15 15 14 14 15 18 20 19 18 17 18 20 18 14 12 14 14 10 10 14 10 4 8 7 4 1 2 3 3 3 6 7 9 10 11 12 12 12 13
12 12 13 13 13 13 13 13 14 14 14 14 14 14 14 14 14 13 13 12 11 11 11 11 11 10 10 10 10 10 9 9 10 10 9 10 10 10 10 12 11 11 13 15 16 16 17 18 19 18 17 15 14 15 17 18 19 18 17 19 18 14 13 13 14 13 9 8 12 11 7 8 8 6 4 4 4 5 8 9 10 13 12 11 10 11 12 14
11 11 12 12 12 12 12 12 13 13 14 14 14 14 14 14 13 13 12 11 11 11 11 11 10 10 9 10 9 9 8 7 8 7 7 8 8 8 9 10 10 11 13 16 16 17 20 20 20 20 19 18 16 16 17 17 18 18 19 20 14 9 12 11 9 9 7 9 13 15 14 12 10 7 5 5 6 9 12 11 11 13 11 9 10 11 11 13
11 11 11 11 11 11 11 12 12 13 13 13 13 13 13 13 13 12 12 11 10 10 11 11 10 9 9 9 9 8 6 5 5 4 4 6 6 7 8 9 10 11 14 15 16 18 20 20 20 20 19 19 19 18 18 16 14 16 17 17 11 9 13 9 6 8 8 11 16 18 19 16 13 10 9 9 11 12 12 10 12 13 11 8 8 9 9 12
11 11 11 11 11 11 11 11 12 12 12 13 13 13 13 12 12 12 11 10 10 10 11 10 9 9 9 8 8 6 5 4 3 4 5 5 5 6 8 9 10 12 13 14 16 18 19 20 21 21 19 18 19 18 18 15 11 13 14 12 11 10 13 11 7 9 10 13 15 17 20 18 13 11 12 15 16 14 12 11 13 14 12 10 10 10 10 13
11 11 11 11 11 10 10 10 11 11 11 11 11 12 12 12 12 11 10 9 10 10 10 10 9 9 8 8 7 6 7 6 6 7 7 6 6 6 7 8 10 11 11 12 14 16 19 20 21 20 18 16 17 16 15 14 11 13 12 9 10 12 14 13 11 12 14 15 12 14 19 18 15 13 14 18 17 14 12 11 12 13 12 12 12 10 12 15
11 11 11 11 11 11 10 10 10 10 10 10 11 11 11 11 11 10 10 9 9 9 9 9 9 9 8 7 6 6 7 7 6 7 6 7 8 7 8 8 9 9 10 11 13 15 17 17 17 16 12 8 9 11 12 12 13 14 13 10 12 14 15 15 16 17 18 17 14 15 17 17 18 17 19 20 16 12 10 9 10 12 12 12 11 11 14 16
12 12 11 11 11 11 10 10 10 10 10 10 10 10 11 10 10 10 9 9 9 9 9 9 9 8 7 6 6 6 5 5 6 7 7 7 7 8 8 7 8 10 11 12 14 15 14 13 12 8 4 2 4 7 9 10 12 13 13 13 16 18 18 17 18 18 20 20 17 17 17 16 15 13 17 17 14 13 11 9 10 11 12 13 13 13 13 14
12 12 11 11 11 10 10 10 10 9 9 10 10 9 10 10 9 9 9 9 9 9 8 8 8 7 7 6 6 6 5 4 4 6 7 5 5 6 6 6 7 10 11 14 15 14 12 13 11 5 3 5 7 8 8 10 12 12 14 16 15 16 17 17 18 20 20 20 17 18 18 16 12 10 15 14 11 13 11 9 10 11 12 13 14 12 12 14
12 12 12 11 11 10 10 10 10 9 9 10 9 9 9 9 9 9 9 9 9 9 8 8 8 7 6 5 5 6 6 4 1 3 4 2 2 3 4 5 7 10 13 14 14 15 14 13 9 4 5 7 8 9 9 11 13 15 17 18 15 13 15 17 21 23 21 19 16 15 16 15 13 12 16 14 13 13 12 12 12 12 12 12 12 11 12 14
12 11 11 11 10 10 10 10 10 10 9 9 10 9 9 9 9 9 9 9 9 9 8 8 7 7 6 5 5 6 7 4 2 1 2 1 1 1 4 7 9 11 15 16 15 18 16 12 8 6 6 8 11 10 10 12 13 14 15 17 17 16 18 21 23 23 21 20 16 12 13 14 14 14 16 16 16 16 15 15 13 11 11 11 12 13 14 13
10 10 10 10 10 9 9 10 9 9 9 9 10 10 10 10 9 9 9 9 9 8 8 8 8 7 6 4 4 4 6 3 3 3 2 2 1 1 3 8 12 15 18 18 18 20 17 11 6 8 9 12 13 11 10 10 10 10 10 14 16 19 21 20 22 23 21 21 18 14 16 18 17 16 16 17 19 20 19 16 14 11 9 9 10 13 14 12
9 9 9 9 9 9 9 9 9 8 8 8 9 10 10 11 10 9 9 9 9 9 9 8 8 7 5 4 4 4 6 4 3 5 4 2 1 1 4 9 14 18 21 20 20 22 17 8 7 11 14 14 13 11 10 10 9 8 9 11 13 18 16 7 12 19 18 19 17 16 21 20 16 16 15 15 18 22 22 18 13 10 8 7 7 10 11 10
8 8 8 8 8 8 8 8 8 7 7 7 7 7 8 11 11 10 9 9 9 9 9 8 7 6 4 4 3 4 5 4 3 5 4 1 0 0 3 7 12 16 18 20 20 19 14 7 10 13 13 14 13 10 10 10 10 9 9 9 10 16 16 7 5 11 12 13 12 16 21 13 9 16 15 11 15 20 21 16 10 7 6 6 6 8 8 7
8 7 7 7 7 8 8 8 7 7 6 5 4 4 4 7 9 10 10 9 9 9 9 8 6 5 3 2 2 3 4 5 5 3 3 2 4 3 3 7 11 14 14 17 17 15 13 10 12 13 12 14 13 10 11 11 10 9 7 10 12 16 21 19 11 10 13 15 14 19 21 12 9 15 14 12 15 20 19 12 7 5 5 5 5 6 6 4
8 7 7 7 7 7 7 7 7 6 5 3 1 2 2 0 4 7 8 9 9 9 9 7 4 3 1 1 0 2 3 5 5 2 2 4 8 8 8 8 7 10 11 14 14 11 11 10 9 10 10 13 12 10 10 9 8 7 7 10 12 13 18 22 18 14 14 19 21 23 23 20 15 12 13 18 20 21 16 9 6 6 6 4 3 5 5 3
8 8 7 7 7 6 6 5 5 4 2 1 3 4 4 2 2 3 5 9 10 10 9 6 5 4 3 5 4 2 1 2 2 4 6 6 8 10 10 10 6 7 8 10 11 7 6 5 4 7 12 12 11 10 9 7 5 7 11 12 13 12 14 19 21 15 14 20 23 25 22 19 14 9 13 22 22 19 13 10 9 8 6 3 2 3 3 2
9 9 8 7 6 6 6 4 3 1 1 3 4 4 3 2 2 3 5 8 10 10 9 7 8 8 7 8 9 6 3 2 2 3 7 7 7 9 10 12 10 8 7 9 9 5 3 3 3 8 13 11 9 9 8 6 7 10 12 13 15 16 16 16 14 13 14 19 20 24 22 16 10 8 15 22 22 18 15 13 12 10 8 4 1 1 1 1
10 9 9 8 6 5 5 4 3 1 4 5 5 4 2 1 4 7 8 8 10 12 12 11 12 14 12 10 11 8 1 3 3 2 4 6 5 6 9 12 11 7 7 9 6 2 1 4 6 9 10 8 7 6 6 4 7 10 12 14 16 18 16 14 4 7 13 17 17 21 24 17 8 4 15 26 26 20 17 16 15 12 9 6 3 1 2 3
10 9 9 8 7 5 4 3 2 2 5 6 6 4 2 4 7 11 12 10 11 14 15 15 14 17 14 9 11 10 4 4 5 4 3 7 5 6 8 9 9 9 9 8 3 2 6 8 6 7 6 4 3 4 4 5 10 14 15 17 17 18 15 12 8 4 13 17 17 19 19 13 6 2 7 21 26 21 17 16 13 12 9 9 6 3 2 1
10 9 8 8 7 5 4 3 1 2 5 6 5 3 4 7 9 12 15 11 11 13 15 17 16 17 15 11 12 12 9 7 7 6 5 8 8 9 9 8 8 9 9 7 5 6 9 6 4 7 5 4 4 4 7 9 12 16 17 18 17 17 14 8 7 4 10 11 8 13 15 11 6 1 2 8 18 17 15 12 9 10 11 10 9 6 4 1
9 9 8 7 7 5 3 2 1 1 5 5 4 3 4 7 9 11 15 14 9 11 14 16 15 15 15 14 13 12 11 12 10 8 7 9 10 11 12 10 7 7 8 9 9 10 10 2 5 4 3 6 8 8 12 13 14 15 15 16 15 12 10 6 7 6 1 2 4 3 12 12 8 3 2 2 9 11 13 11 8 11 11 9 8 6 5 4
9 8 8 7 6 5 3 2 0 2 6 5 5 6 7 7 9 10 11 14 9 8 11 12 13 15 16 15 13 11 10 11 11 8 8 9 9 11 13 11 8 8 10 10 9 12 11 2 2 4 5 7 10 10 12 13 13 14 14 14 11 7 6 7 7 5 5 7 8 6 6 11 11 5 2 3 7 10 13 14 13 12 10 8 7 5 5 5
9 9 8 7 6 5 4 2 4 6 7 7 8 8 8 7 7 9 9 14 10 5 9 9 10 12 16 18 13 10 9 11 11 9 10 9 8 8 9 10 11 12 12 9 10 15 15 11 9 11 10 9 11 12 11 10 10 12 13 12 8 5 6 8 5 4 7 7 6 5 4 7 12 10 4 3 5 10 15 17 17 15 12 10 7 5 5 6
10 9 8 8 7 5 6 5 8 9 8 9 10 9 9 6 4 8 11 15 11 3 6 8 7 7 17 22 14 9 10 14 14 13 13 13 11 8 6 10 12 11 10 8 11 15 16 14 13 15 13 11 13 13 12 11 11 12 13 11 8 7 9 7 4 1 3 2 3 4 2 5 12 12 5 1 3 7 17 20 18 16 13 12 8 6 7 8
11 10 9 8 8 6 6 6 9 11 10 12 13 10 9 7 4 7 9 9 7 2 3 6 7 6 13 19 15 12 10 9 11 15 16 14 15 15 12 11 13 11 9 8 11 13 13 13 12 17 16 12 12 12 12 13 12 12 11 8 8 9 10 7 3 2 2 1 4 5 6 7 12 13 8 4 5 7 16 20 22 20 14 12 10 7 7 9
13 12 10 9 8 7 7 7 9 14 14 15 14 11 9 8 5 5 4 2 2 2 2 4 7 5 6 13 16 15 9 3 4 10 15 14 14 18 19 15 14 15 12 11 14 11 10 12 10 18 19 13 10 10 9 11 12 11 9 6 6 7 7 6 5 3 4 3 3 4 7 8 8 12 11 9 8 9 12 15 22 23 16 12 9 7 7 9
14 14 12 11 10 9 8 9 11 14 16 15 13 11 9 8 4 1 1 1 1 2 3 4 7 6 4 10 17 15 10 9 5 4 12 17 16 19 21 16 14 18 17 17 20 14 10 9 9 14 16 12 9 7 6 7 8 9 10 10 8 6 6 6 5 4 3 2 2 3 3 4 5 9 10 10 8 8 9 10 16 19 15 11 7 7 10 12
16 15 15 14 12 10 10 10 11 12 14 13 12 11 9 7 4 3 1 1 2 2 3 6 6 7 5 8 17 18 15 14 10 8 11 17 16 17 18 16 14 16 16 17 20 17 12 9 10 12 11 8 7 7 7 5 2 5 8 12 11 7 8 8 7 6 4 2 3 2 0 1 2 3 6 8 7 5 5 10 14 14 13 10 6 8 13 14
16 17 17 16 14 12 11 10 10 10 11 12 12 11 10 7 5 5 2 2 4 3 4 5 4 6 8 8 12 16 15 14 12 13 12 15 17 18 15 15 14 14 16 16 16 15 12 8 11 14 10 6 6 8 9 6 3 4 6 9 10 7 5 5 6 6 3 1 1 1 3 3 1 2 5 7 5 5 8 14 15 14 14 12 9 10 15 15
15 17 17 17 18 15 12 12 11 10 11 11 10 10 10 7 7 8 5 1 2 1 3 4 2 5 9 11 12 12 13 13 12 14 15 15 18 20 17 15 14 12 11 12 13 13 12 7 6 9 9 7 6 7 8 7 9 8 5 7 6 1 2 1 3 2 2 2 1 3 5 3 2 3 6 7 6 5 9 14 18 19 19 15 12 14 18 16
17 17 17 17 19 16 14 14 13 12 12 11 10 10 10 6 5 12 12 6 4 2 3 3 2 5 8 10 13 14 15 15 13 15 18 19 19 19 18 14 13 12 9 8 8 8 9 8 7 8 9 8 8 8 6 6 10 10 8 7 4 3 3 1 2 1 1 2 0 3 4 3 3 2 4 6 7 8 9 11 15 16 17 16 17 19 19 17
18 18 17 17 17 16 15 15 15 14 13 12 11 10 11 8 6 10 11 9 8 4 4 6 7 11 13 11 11 15 19 18 16 17 17 20 21 19 19 15 11 12 11 10 10 7 5 5 8 10 9 7 9 9 6 6 9 8 6 7 7 6 4 2 4 3 2 3 2 2 2 1 1 4 7 4 8 15 14 12 14 13 14 17 20 19 17 16
18 19 18 16 15 15 16 17 17 16 15 14 13 12 14 14 12 11 10 9 6 7 8 10 13 15 16 13 10 13 20 18 17 19 17 18 20 19 20 17 12 12 13 13 11 9 7 7 8 8 6 5 7 8 6 6 7 5 3 3 7 10 11 6 5 7 5 1 1 2 2 2 2 7 7 6 11 14 13 13 14 14 15 16 16 15 15 15
18 19 18 16 14 14 16 19 19 18 17 16 16 17 18 17 14 11 9 7 3 8 10 11 9 6 10 12 9 8 14 17 16 16 14 14 15 16 19 17 13 13 14 14 12 9 8 8 8 8 6 5 8 9 8 7 4 2 4 4 1 5 11 8 5 5 4 2 1 3 3 5 6 8 6 6 8 10 8 8 10 11 11 10 11 13 14 14
16 18 17 14 12 13 16 19 20 20 19 18 19 19 20 19 16 13 12 10 7 9 12 14 9 2 5 9 10 5 5 11 17 17 16 15 12 12 16 17 15 17 16 14 14 11 9 9 9 9 7 5 10 13 10 6 4 3 4 3 2 3 7 6 3 2 2 2 3 3 2 5 5 5 8 9 8 11 14 15 16 16 15 14 13 13 13 13
14 15 14 11 11 14 17 19 21 22 20 20 21 20 20 19 17 15 14 14 12 11 11 13 12 5 3 7 11 9 7 7 13 18 17 16 14 12 13 11 11 17 19 18 16 10 8 10 8 7 7 4 10 16 10 4 4 5 4 2 2 4 5 4 2 1 1 1 3 1 4 5 3 2 8 12 10 14 18 17 17 18 18 19 17 15 14 13
12 9 8 9 12 15 16 18 21 22 21 21 22 21 20 19 17 15 14 14 12 10 10 13 12 7 4 3 5 9 10 7 8 15 15 13 14 15 14 8 6 8 10 14 17 10 7 9 5 4 7 4 5 7 2 3 1 2 5 5 3 3 3 3 3 3 3 2 2 1 4 4 5 6 6 9 10 14 16 16 17 17 17 18 17 14 13 11
9 4 7 11 12 13 15 19 21 21 20 21 22 20 18 18 17 16 14 13 11 8 9 12 10 6 4 3 2 5 8 9 8 12 12 7 7 10 10 9 9 8 2 5 14 11 7 10 7 4 7 6 3 4 7 6 7 6 4 5 2 3 4 4 3 3 4 3 3 2 1 2 6 8 7 8 9 11 11 12 13 13 14 15 15 12 8 7
5 4 10 11 11 12 14 17 19 19 17 17 17 17 17 17 16 15 12 11 11 10 11 13 12 10 8 7 7 6 6 8 8 12 13 7 4 4 3 5 12 17 11 4 7 10 8 9 9 9 8 7 4 2 5 5 7 9 7 4 4 5 6 5 2 3 5 4 4 3 1 4 7 6 6 7 9 10 9 9 9 10 10 11 12 13 12 12
3 7 12 13 13 12 11 13 15 16 14 12 12 12 13 14 14 12 9 8 9 10 12 13 12 11 8 5 6 7 5 5 5 8 13 10 6 5 6 3 5 15 20 13 8 8 8 7 8 10 10 9 8 6 8 9 8 7 4 0 4 6 6 6 4 4 5 4 5 5 2 4 7 5 4 6 9 11 11 11 11 13 15 16 16 17 17 16
5 12 15 15 15 15 12 11 12 14 12 11 10 8 7 9 10 9 7 7 10 11 11 11 8 6 4 2 4 4 4 4 2 2 9 8 8 10 8 4 2 8 17 18 12 8 7 6 5 7 10 13 13 11 10 10 8 1 8 8 3 1 3 6 6 6 5 5 7 5 3 4 6 4 3 5 7 9 12 12 11 13 17 19 19 19 18 18
7 15 17 15 17 17 14 10 10 11 11 11 12 10 8 9 10 10 11 13 15 15 14 13 11 9 5 2 4 4 4 5 3 7 7 5 4 7 10 11 10 8 10 14 14 10 8 6 5 2 3 7 9 9 7 7 4 5 9 6 8 8 3 3 5 5 4 3 5 5 4 6 6 3 3 4 6 7 9 11 11 11 14 17 17 17 17 18
7 15 16 14 15 15 12 9 8 8 8 10 13 12 12 12 11 11 12 12 12 11 11 12 11 11 9 6 5 3 3 7 5 8 10 10 7 6 7 10 11 13 11 9 11 10 7 7 6 4 3 1 2 2 3 4 3 2 1 3 8 9 6 3 2 3 4 5 5 6 9 12 10 5 5 5 6 8 8 9 10 11 12 15 15 16 17 18
4 11 13 12 14 14 11 9 8 6 5 8 9 8 9 10 10 10 10 8 6 6 7 11 12 12 11 10 9 5 3 5 5 5 10 13 11 8 8 10 12 14 14 12 13 12 9 8 7 6 5 4 4 4 5 8 8 8 8 8 10 10 8 4 3 3 4 5 4 7 12 14 11 5 5 5 6 9 9 9 10 11 11 11 12 14 16 18
3 4 8 10 12 13 11 10 8 5 3 2 2 3 4 5 7 9 6 6 7 4 4 8 12 12 11 11 12 9 4 3 6 5 9 12 11 10 11 13 13 12 13 14 13 13 11 9 8 8 7 6 8 10 12 13 11 10 11 10 9 9 9 7 3 3 3 1 4 9 13 14 11 7 5 5 5 7 7 7 8 10 8 6 7 10 12 16
2 1 3 4 5 5 5 7 8 7 5 4 3 3 3 2 5 8 6 3 7 6 3 3 6 10 11 10 11 10 7 7 7 6 5 9 11 11 10 10 10 10 11 11 12 12 11 9 9 9 9 10 12 13 15 17 15 11 9 8 8 8 8 6 2 4 3 3 5 8 9 11 12 9 7 6 6 7 6 5 5 6 6 5 6 7 10 13
2 1 1 1 1 2 4 6 5 7 5 5 5 4 3 2 2 6 6 4 4 5 5 3 2 5 8 9 11 10 9 9 6 5 6 7 8 7 7 6 6 7 8 8 9 10 9 7 8 9 10 10 11 12 15 18 18 14 8 5 6 7 8 7 4 2 2 3 5 6 9 14 12 8 7 9 9 10 11 9 8 8 8 8 9 9 10 11
4 4 5 6 5 3 5 9 7 6 7 7 7 8 7 7 4 1 5 5 3 1 2 3 1 3 5 6 9 10 9 10 8 6 7 8 8 8 7 6 6 6 7 6 7 8 8 7 8 9 9 9 10 11 13 14 15 13 8 6 7 7 7 7 6 5 5 4 7 9 11 14 11 7 8 9 9 10 11 11 11 11 12 13 13 14 14 14
8 11 10 8 8 7 6 7 5 5 8 10 10 8 5 8 8 4 0 1 1 1 2 3 4 5 6 6 7 8 8 10 10 9 9 11 11 10 9 9 8 9 8 5 5 7 9 9 10 9 8 8 10 11 12 14 14 11 9 9 9 8 6 6 7 7 6 6 9 10 10 11 10 9 10 11 11 11 12 13 13 14 16 17 17 17 17 17
9 12 9 5 7 11 9 4 0 2 6 10 12 8 4 6 6 4 3 3 1 1 3 4 6 9 10 9 8 7 7 9 10 11 11 12 12 11 10 10 9 9 9 7 5 6 8 10 11 11 9 8 9 11 11 11 9 7 7 7 5 3 3 4 5 6 5 5 7 9 11 13 12 11 12 13 14 14 13 14 15 16 17 18 18 18 18 20
Wind_Direction
295 293 290 286 283 281 278 275 274 272 270 269 268 268 267 267 267 268 271 273 277 280 282 282 280 279 278 277 274 274 274 274 273 267 265 261 257 251 246 239 230 224 219 221 220 214 214 211 207 205 207 203 200 204 212 217 208 196 192 203 211 209 208 199 204 223 250 282 326 342 319 272 157 110 102 129 156 174 215 265 264 278 299 301 298 291 287 298
297 295 292 289 286 282 278 276 274 271 269 268 266 266 265 265 265 265 268 270 275 280 282 282 280 280 279 278 278 276 276 277 274 270 267 258 252 246 241 239 233 225 219 216 213 208 205 201 198 201 206 205 202 204 212 216 211 205 203 212 218 216 212 207 223 246 269 306 328 328 277 253 233 201 227 239 226 189 218 261 281 297 299 296 296 286 278 286
304 300 296 293 289 285 281 278 275 272 270 268 266 263 262 262 262 262 264 268 273 277 280 280 280 281 281 281 281 279 282 282 277 275 268 258 253 245 238 237 233 223 215 211 207 201 196 195 196 195 197 197 197 204 209 207 206 209 212 222 230 233 230 226 241 256 261 292 317 310 267 253 255 239 254 296 282 259 262 270 292 301 296 295 296 283 277 281
315 310 305 299 294 289 284 281 277 274 271 268 266 263 262 260 260 260 261 265 270 274 276 277 279 280 281 282 284 285 288 284 279 281 272 260 249 239 235 231 227 218 212 209 202 199 199 196 196 195 195 188 185 196 200 195 198 207 219 231 244 264 256 242 253 262 258 279 296 300 289 273 265 249 246 286 287 272 275 282 296 295 290 294 293 282 278 276
324 321 318 311 303 296 290 285 280 276 272 268 266 263 261 258 256 257 257 261 266 271 272 275 278 278 281 282 284 288 288 278 269 270 269 266 250 230 224 220 219 215 212 208 198 199 200 194 193 198 198 186 181 188 191 188 195 208 220 236 250 271 267 256 271 272 266 286 292 291 289 280 269 255 249 269 277 272 275 288 297 288 279 283 286 284 281 267
325 325 326 324 317 309 300 292 284 278 273 269 265 262 258 254 253 252 253 257 261 266 270 274 276 275 279 280 284 288 271 245 226 240 263 274 261 235 222 214 211 212 210 205 197 197 197 195 196 200 200 188 185 189 186 182 198 221 224 236 250 269 275 271 274 275 274 286 292 287 283 284 277 264 261 268 269 265 267 278 286 279 270 275 282 287 276 249
322 323 325 327 326 322 313 302 290 281 274 268 264 259 255 251 249 249 250 254 257 264 269 273 275 274 277 278 282 281 259 245 234 247 264 266 253 236 223 211 207 208 203 198 195 195 195 196 199 205 210 200 195 191 182 183 203 234 239 243 259 270 276 282 286 280 277 274 276 283 286 285 283 283 280 271 261 254 259 269 272 268 270 280 282 275 252 231
317 318 320 323 326 326 321 310 296 285 276 268 262 257 252 248 246 246 248 251 256 262 267 272 274 274 276 278 277 274 265 263 260 258 271 262 244 233 219 205 199 194 191 189 186 188 191 199 204 208 212 200 198 185 175 195 217 235 250 267 277 272 270 282 287 275 271 265 260 274 283 282 285 292 286 276 267 257 256 265 270 271 276 279 275 263 250 240
312 314 316 317 319 322 322 315 302 289 279 269 262 256 251 247 244 244 246 248 253 258 264 269 273 275 275 275 271 269 264 272 278 268 271 261 239 229 215 195 187 183 183 180 177 183 186 192 187 175 172 172 227 203 192 226 236 236 253 275 282 275 267 272 274 268 268 262 260 273 278 280 289 290 276 271 273 269 265 274 280 274 269 270 274 269 255 249
308 309 309 311 311 314 317 315 307 294 282 271 262 256 250 247 244 244 244 247 252 255 260 265 270 273 271 273 269 263 256 267 279 259 253 246 228 222 208 189 179 175 179 177 171 169 159 156 152 145 213 240 255 236 227 249 252 251 262 272 279 276 264 256 256 263 268 259 259 276 276 278 286 275 266 266 268 270 268 270 271 265 262 269 276 265 243 240
304 303 302 304 305 308 311 312 310 298 285 273 261 254 249 248 244 243 244 246 250 252 256 261 266 269 269 273 263 255 251 244 260 255 246 227 223 218 198 179 170 171 172 168 161 156 149 148 160 207 238 250 254 241 236 243 252 259 261 263 263 266 259 245 249 259 262 256 260 274 276 275 273 264 262 263 262 266 268 263 261 257 258 269 274 261 247 244
302 300 298 299 301 304 306 308 310 304 291 276 262 253 248 247 244 243 243 245 249 252 255 258 261 264 266 264 252 260 260 231 142 217 256 244 237 227 193 164 160 166 160 155 156 162 162 165 192 231 243 251 244 238 235 230 245 250 252 261 256 256 256 246 250 256 253 251 253 265 275 266 258 258 259 262 262 259 259 254 245 244 255 269 276 267 254 249
306 302 298 298 299 300 302 306 309 308 300 285 269 255 248 246 245 244 243 246 249 251 253 255 258 261 264 257 243 268 274 244 147 166 203 227 208 200 191 163 160 162 158 161 166 169 169 172 217 245 247 248 236 236 232 219 240 248 250 266 259 257 261 255 254 254 250 248 244 248 266 261 253 256 256 261 261 251 246 239 232 240 261 274 283 278 259 249
315 309 304 300 298 298 300 305 308 309 306 298 282 263 251 247 247 247 245 246 249 251 253 254 259 264 267 254 233 256 271 262 173 173 170 178 188 200 197 170 168 171 170 173 177 178 176 181 240 239 236 233 224 233 228 214 233 248 252 255 256 260 265 275 262 258 252 243 236 237 253 258 253 256 256 257 257 250 240 228 226 240 258 272 291 295 274 251
327 321 315 308 303 301 300 303 307 311 312 310 299 279 259 250 247 245 244 247 248 250 252 254 261 268 270 253 248 265 272 280 234 182 150 140 145 206 208 181 181 185 184 185 184 184 183 203 234 232 232 218 214 236 229 221 226 234 258 259 261 266 272 305 285 260 245 225 222 225 237 248 249 253 253 250 249 240 230 219 221 236 245 274 303 314 300 264
333 333 329 321 314 305 302 302 304 311 319 318 310 298 271 255 248 245 243 244 248 251 250 253 260 266 272 260 274 289 286 297 272 197 132 132 141 144 164 175 193 199 197 193 185 185 196 217 232 233 229 208 211 228 222 231 228 218 263 280 284 286 285 292 293 280 260 241 232 222 227 237 248 251 241 244 238 216 213 212 216 233 232 269 306 319 320 291
328 333 336 336 331 319 310 301 299 308 321 321 342 69 74 271 254 248 244 243 246 249 246 246 249 243 227 108 45 300 281 279 265 197 156 159 157 166 151 136 180 199 195 195 190 195 205 213 239 235 207 194 206 220 223 240 233 221 272 291 306 310 292 291 295 289 259 243 238 225 226 233 246 259 227 221 214 201 205 209 209 228 226 248 313 320 321 313
317 320 328 337 342 342 332 313 298 295 306 307 125 116 117 128 205 226 234 240 239 243 245 237 228 216 157 113 98 55 357 244 202 176 191 181 176 184 153 119 126 159 163 180 188 195 189 188 243 211 183 190 198 206 226 243 258 281 291 298 314 316 307 303 296 278 228 220 229 227 226 229 240 261 226 210 204 204 213 207 205 216 214 230 323 315 321 323
311 311 314 322 334 348 352 349 330 284 175 154 151 142 145 168 231 230 230 231 227 232 236 223 206 189 158 122 109 98 48 25 91 157 196 187 197 199 161 137 135 142 147 152 157 155 152 174 226 196 185 191 187 196 231 261 291 296 287 291 303 302 320 329 296 258 212 203 218 225 220 219 234 240 218 206 201 210 214 200 196 192 184 180 201 296 355 35
310 308 307 309 318 334 350 6 20 103 155 168 165 156 170 247 272 266 258 242 228 226 222 215 196 173 159 138 135 138 108 322 8 23 201 183 195 201 168 149 148 163 161 147 145 136 244 250 231 204 185 176 169 194 237 261 277 283 278 284 290 289 318 1 346 232 207 197 203 212 209 213 232 203 200 202 203 213 210 196 186 176 168 156 125 52 90 97
310 307 303 301 305 314 332 353 23 113 160 179 180 186 252 292 286 283 280 258 234 230 222 216 202 180 170 162 161 157 150 282 319 346 214 190 190 194 176 164 174 185 158 148 182 259 265 261 227 192 176 188 192 195 236 254 263 277 286 289 291 287 309 10 46 147 184 189 189 195 202 211 214 146 199 205 207 214 210 201 187 170 160 151 134 117 140 110
310 306 300 297 296 302 316 328 354 141 166 185 198 223 289 300 292 294 297 277 233 231 227 217 211 195 184 177 175 170 164 203 263 289 243 207 196 193 190 191 194 181 157 168 213 232 247 248 162 162 172 224 223 217 257 270 271 283 295 294 291 291 304 343 24 80 165 180 178 192 205 208 201 225 333 211 206 212 219 223 211 190 180 169 164 159 160 203
308 305 299 293 287 289 298 307 314 180 167 181 209 233 271 283 287 297 304 294 250 229 236 227 219 203 188 181 179 181 181 192 225 254 243 214 197 193 193 191 186 176 172 186 197 210 226 186 103 153 208 240 241 244 251 256 269 287 300 297 290 294 307 323 347 6 165 232 346 241 215 216 217 203 40 226 216 222 226 223 217 210 204 188 182 178 170 179
302 301 296 290 282 277 271 283 323 158 157 170 209 226 245 265 288 300 301 297 278 237 248 239 224 212 190 177 175 186 205 210 215 227 234 221 197 195 194 182 186 197 190 188 201 220 230 263 351 293 283 252 245 246 243 250 268 287 297 294 288 294 311 316 311 307 300 310 328 318 254 237 238 223 164 198 220 228 222 209 206 209 206 198 198 205 202 190
299 295 291 287 280 267 255 225 159 163 170 193 221 242 260 267 295 319 320 311 306 248 247 239 227 218 187 182 186 189 216 231 221 223 235 223 194 193 194 190 202 201 190 195 228 247 258 277 283 278 274 240 221 226 239 258 271 283 292 283 275 306 323 324 316 269 287 316 335 337 315 260 254 257 248 209 226 227 215 209 210 208 201 196 202 221 213 194
294 291 285 280 275 262 250 222 184 185 193 212 234 262 286 287 319 347 335 317 317 273 239 233 229 218 189 195 198 181 216 241 234 235 242 229 222 232 216 210 222 215 208 229 252 261 274 285 267 252 247 219 205 213 230 254 267 278 289 273 258 296 307 314 347 336 282 312 353 344 315 274 268 270 274 275 291 223 210 213 214 213 209 205 211 227 218 205
285 286 284 274 269 258 247 233 205 202 206 222 243 268 293 305 349 357 336 315 320 331 250 227 216 213 200 203 199 183 204 235 225 225 231 225 225 236 236 230 240 238 226 248 264 264 279 290 255 225 221 215 216 225 236 253 264 274 287 275 262 289 294 291 306 350 15 327 306 295 256 262 273 277 291 298 288 234 217 218 217 217 217 206 204 207 213 215
273 276 280 274 268 258 242 236 217 211 219 233 249 262 280 298 316 335 340 340 343 354 314 237 207 208 211 202 197 193 189 179 197 213 217 215 215 227 234 235 242 242 231 247 266 269 282 283 240 212 218 227 241 253 255 251 250 257 276 273 268 297 295 279 272 285 4 355 301 286 245 241 267 281 300 308 289 268 253 239 227 222 215 202 200 201 213 214
266 265 269 269 268 260 245 236 225 226 238 249 258 264 272 288 285 283 10 19 302 321 311 266 218 209 220 197 196 204 213 217 238 243 213 214 217 222 231 238 244 243 237 248 264 276 288 272 232 215 221 229 250 276 278 248 242 258 271 265 261 286 289 291 297 282 324 328 270 291 239 223 278 288 300 310 304 293 281 248 222 216 209 198 199 215 212 197
265 260 258 260 261 260 253 245 240 243 253 262 268 267 270 272 234 181 172 242 267 313 302 280 241 214 216 203 200 211 228 227 239 261 219 211 221 219 227 242 246 245 243 249 259 268 280 266 231 222 224 233 257 279 276 248 254 290 269 251 244 255 273 289 304 289 299 307 222 214 45 5 312 291 297 302 307 303 241 196 192 201 202 195 202 225 208 188
266 259 253 253 251 252 254 253 249 245 250 259 258 256 256 243 200 171 169 242 262 294 289 282 260 214 217 224 213 215 229 230 237 247 215 199 212 211 218 236 235 243 254 255 258 262 273 265 224 224 238 259 266 276 271 233 212 284 260 230 232 245 267 284 299 290 277 270 197 190 332 324 225 263 284 274 281 272 217 200 204 209 207 205 215 214 192 178
267 261 254 249 246 246 247 250 250 243 244 248 243 241 236 218 202 207 207 230 264 306 312 294 256 226 234 239 232 224 231 233 228 228 213 201 207 209 219 235 230 237 255 258 261 261 261 253 208 221 241 245 255 273 272 234 224 252 248 209 216 270 26 319 307 305 237 241 345 4 332 294 236 299 290 259 258 247 219 217 220 222 226 223 207 189 177 170
266 262 256 250 246 241 238 244 247 243 242 241 235 232 218 196 220 229 225 228 212 167 5 345 242 250 268 255 241 237 239 238 222 213 216 215 216 220 227 235 235 237 243 248 257 261 260 251 235 250 251 238 245 251 260 248 225 234 247 220 187 101 76 299 270 325 290 238 252 342 327 281 250 319 327 278 246 195 188 211 215 215 221 209 184 175 172 171
264 262 257 253 248 241 234 237 241 240 238 237 233 222 204 198 224 232 233 234 231 253 318 335 306 276 274 270 256 241 236 237 228 220 220 217 221 228 225 222 227 231 235 240 245 252 264 259 250 260 261 240 233 234 256 258 212 214 258 250 230 202 167 206 221 190 220 226 234 310 317 270 204 110 89 93 153 156 162 188 199 190 179 172 167 166 173 181
262 260 258 254 249 240 229 227 232 235 235 233 228 215 208 216 228 236 245 241 258 306 302 306 304 278 263 269 275 248 234 232 228 225 224 220 228 235 225 219 218 218 225 234 239 242 247 261 266 263 256 225 218 228 240 227 199 205 235 224 240 229 205 196 196 182 178 195 281 253 211 230 163 137 125 126 145 143 139 154 168 163 156 161 171 174 178 184
263 259 256 252 247 239 229 223 225 228 230 228 223 221 221 227 233 238 247 238 267 325 313 311 310 251 240 262 282 271 242 233 232 234 232 226 234 237 225 222 222 217 224 229 228 226 227 243 255 252 242 199 204 225 220 202 191 201 188 149 67 230 209 194 174 173 155 112 236 231 215 217 189 171 191 206 189 190 197 195 190 182 177 187 197 188 178 176
268 258 253 251 242 233 228 224 223 223 225 224 223 229 233 237 237 238 250 251 262 310 318 320 323 190 206 255 259 285 283 241 233 237 240 236 242 242 223 222 227 228 234 234 225 219 222 237 242 246 259 222 205 217 213 207 241 235 193 150 94 184 203 191 148 106 95 106 234 234 178 194 197 184 187 187 196 211 214 218 224 223 218 215 205 190 181 172
275 262 254 244 226 224 225 222 220 220 221 223 227 233 237 239 239 241 253 261 273 300 309 312 313 285 259 275 257 262 299 272 223 215 221 225 232 239 229 220 222 227 232 228 220 211 218 241 250 240 250 240 207 217 220 215 236 228 220 239 208 184 181 172 147 118 149 195 253 196 113 141 129 85 188 198 215 215 203 201 215 223 218 213 211 211 214 203
285 272 244 220 214 220 224 219 216 216 217 223 229 234 238 242 243 242 248 258 273 294 303 308 306 274 246 305 291 275 276 269 212 204 216 222 221 228 234 234 214 217 229 219 212 203 200 226 245 201 202 186 181 201 189 41 6 228 228 248 245 198 179 166 165 171 162 174 233 121 90 123 114 93 147 187 196 198 200 198 204 212 210 213 219 219 224 229
294 258 197 199 207 212 218 216 211 210 217 226 233 238 244 248 246 242 243 251 261 271 287 298 295 269 249 233 279 310 272 252 238 229 234 231 212 214 224 237 226 209 191 190 198 198 198 215 237 234 200 190 153 82 57 25 354 342 267 240 223 180 168 159 153 129 122 133 162 132 56 147 133 114 131 165 173 174 186 188 185 191 195 204 213 213 230 264
286 192 176 185 195 199 209 214 209 211 220 229 238 245 250 253 251 246 238 239 252 259 266 280 286 286 287 251 247 297 282 257 261 241 226 210 199 195 178 235 232 214 213 247 220 209 204 210 235 254 234 214 222 356 1 334 330 332 314 279 238 206 175 162 160 137 128 137 151 152 197 166 139 128 141 173 193 197 209 216 204 203 208 213 218 226 249 269
216 166 161 172 184 188 203 214 208 209 221 236 251 258 260 260 254 244 232 227 249 269 266 272 283 282 280 259 262 294 274 252 274 231 209 201 210 191 123 93 233 215 219 243 253 220 211 208 223 247 255 247 245 279 314 313 305 313 336 156 222 226 190 162 161 170 166 171 167 155 158 155 144 145 157 179 204 213 225 239 240 237 238 238 234 234 243 252
179 160 155 163 173 177 195 215 209 211 234 259 266 266 268 269 258 250 260 267 274 284 274 264 262 255 261 253 252 275 242 230 325 169 190 216 228 206 190 189 204 205 212 220 221 210 206 199 201 233 258 261 257 268 292 291 281 352 82 89 71 7 182 170 164 169 162 169 176 161 130 146 149 153 184 197 210 216 223 234 246 250 245 240 238 237 239 244
178 165 162 167 172 176 191 214 224 234 258 272 266 262 270 279 276 273 287 293 286 278 263 250 242 232 233 215 210 239 227 201 107 100 152 222 232 195 219 233 224 219 212 206 205 204 201 201 198 207 276 283 278 284 290 272 254 86 84 68 39 40 60 163 171 167 145 152 178 169 146 133 128 145 189 208 220 217 221 232 240 245 243 239 238 238 237 239
195 177 177 180 181 181 191 207 226 245 264 267 263 267 274 275 270 264 273 283 285 272 244 231 233 228 225 219 198 176 165 179 148 98 129 159 158 165 216 230 222 227 234 227 221 217 212 215 208 174 142 146 256 288 317 298 305 31 36 352 4 6 13 49 129 140 135 152 147 139 142 128 116 141 178 194 211 195 193 217 224 227 234 237 239 242 243 244
227 187 188 194 191 186 188 204 221 231 250 261 262 266 271 268 255 247 252 249 251 270 242 217 218 221 222 230 225 204 138 151 159 101 113 142 163 179 201 212 211 217 228 239 243 241 233 223 221 218 209 203 207 220 266 285 294 299 297 319 337 329 332 352 8 65 124 167 151 147 158 144 127 140 162 168 196 196 198 215 224 229 238 245 251 255 258 260
290 193 186 193 195 190 190 206 219 209 197 236 250 239 251 258 238 226 223 216 218 257 279 229 225 228 223 227 228 220 214 180 170 133 100 116 143 156 170 194 202 200 211 224 230 235 235 226 227 236 234 234 237 240 249 262 280 295 295 302 312 306 308 315 339 82 108 171 144 154 163 151 140 154 168 160 176 195 205 219 234 241 246 255 268 269 268 268
313 236 180 190 209 208 189 192 200 185 143 106 114 164 190 208 216 200 182 207 216 207 215 226 225 227 222 222 221 211 214 222 202 180 137 119 130 143 150 165 175 180 198 215 220 226 232 232 233 235 231 232 240 244 247 253 263 275 284 289 287 281 288 307 28 111 130 133 142 158 161 150 147 162 191 204 206 208 207 201 215 227 228 241 263 276 281 279
4 284 325 33 0 9 70 105 165 184 155 122 119 118 117 115 190 201 205 248 242 192 204 232 213 217 222 218 218 215 217 219 201 184 192 167 148 156 158 153 163 178 196 214 223 227 229 221 221 230 227 223 230 237 242 247 251 257 272 298 296 283 282 295 310 263 220 164 155 158 144 139 143 156 186 204 218 227 231 230 228 223 219 223 231 245 264 273
66 103 87 85 86 70 95 111 127 161 160 138 104 82 77 81 79 237 239 251 271 140 194 231 215 240 248 228 221 224 224 222 209 187 200 197 181 181 181 174 171 165 175 203 217 220 222 207 202 218 223 223 229 234 238 244 248 258 280 293 290 289 281 277 275 263 249 198 174 170 149 139 144 167 183 192 210 220 222 226 229 224 216 217 225 236 246 253
82 102 95 98 97 74 84 122 137 158 143 110 82 73 74 75 72 61 53 223 247 161 172 208 221 238 250 246 235 224 213 220 223 213 211 213 205 196 187 186 186 176 176 196 202 199 208 207 203 211 218 226 237 239 243 249 252 265 280 278 282 291 279 260 260 259 246 200 184 192 178 158 162 185 194 200 215 222 215 212 217 219 216 218 226 233 237 242
82 93 81 88 101 78 61 56 190 153 112 84 73 76 63 51 72 101 98 83 83 195 206 220 235 244 244 244 242 225 199 202 214 217 217 218 215 211 197 187 192 193 190 199 202 193 202 205 207 217 225 226 235 242 248 254 260 270 270 267 280 290 266 255 247 246 243 214 201 203 188 175 182 202 212 215 220 224 216 207 210 216 217 220 224 228 230 232
Height
3106 3106 3105 3105 3105 3104 3104 3104 3104 3104 3103 3103 3103 3103 3103 3102 3102 3102 3102 3102 3101 3101 3101 3101 3100 3100 3099 3099 3099 3099 3099 3099 3099 3098 3098 3099 3099 3099 3099 3100 3101 3102 3103 3104 3106 3107 3109 3110 3112 3113 3113 3114 3116 3118 3119 3120 3121 3120 3120 3120 3120 3120 3120 3121 3122 3123 3125 3126 3126 3127 3128 3129 3128 3128 3126 3125 3125 3126 3125 3125 3125 3126 3127 3127 3128 3128 3129 3129
3105 3104 3104 3103 3103 3103 3102 3102 3102 3102 3102 3101 3101 3101 3101 3101 3100 3100 3100 3100 3100 3100 3100 3099 3099 3098 3098 3098 3098 3097 3097 3097 3097 3097 3097 3097 3097 3098 3098 3098 3099 3100 3102 3103 3104 3105 3107 3109 3110 3111 3112 3114 3115 3116 3117 3119 3119 3119 3119 3118 3118 3118 3119 3120 3122 3123 3125 3125 3126 3126 3127 3128 3127 3127 3127 3125 3124 3125 3124 3123 3123 3124 3126 3126 3127 3128 3128 3128
3103 3103 3102 3102 3101 3101 3101 3100 3100 3100 3100 3100 3099 3099 3099 3099 3098 3098 3098 3098 3098 3098 3098 3097 3097 3097 3097 3096 3096 3096 3096 3096 3096 3096 3096 3096 3096 3096 3097 3097 3098 3099 3100 3101 3102 3103 3105 3106 3107 3108 3109 3111 3113 3115 3116 3117 3118 3118 3118 3117 3117 3118 3119 3120 3121 3123 3124 3125 3125 3126 3127 3127 3126 3126 3126 3125 3124 3124 3123 3122 3122 3123 3124 3125 3127 3127 3127 3127
3102 3101 3101 3100 3100 3099 3099 3098 3098 3098 3098 3098 3098 3097 3097 3097 3097 3097 3097 3097 3097 3097 3096 3096 3096 3096 3095 3095 3095 3095 3095 3095 3095 3095 3095 3094 3095 3095 3095 3096 3096 3097 3098 3099 3100 3102 3103 3104 3105 3106 3107 3108 3111 3113 3114 3115 3116 3116 3116 3115 3117 3119 3118 3119 3121 3122 3123 3124 3124 3125 3125 3126 3125 3125 3125 3125 3123 3123 3122 3121 3121 3122 3123 3124 3125 3126 3127 3127
3101 3100 3099 3099 3098 3098 3097 3097 3096 3096 3096 3096 3096 3096 3095 3095 3095 3095 3095 3095 3096 3096 3095 3095 3095 3094 3094 3094 3094 3094 3095 3094 3094 3094 3094 3093 3093 3094 3094 3095 3095 3096 3097 3098 3099 3100 3101 3103 3104 3105 3106 3108 3109 3110 3112 3113 3115 3115 3115 3115 3116 3118 3117 3118 3120 3121 3122 3123 3123 3123 3123 3124 3124 3124 3124 3123 3122 3122 3121 3121 3121 3121 3122 3123 3124 3125 3126 3126
3100 3099 3099 3098 3097 3096 3096 3095 3095 3094 3094 3094 3094 3094 3094 3094 3094 3094 3094 3094 3094 3094 3094 3093 3093 3093 3093 3093 3093 3094 3094 3093 3093 3093 3093 3093 3092 3093 3093 3094 3094 3095 3096 3097 3098 3099 3101 3102 3103 3104 3106 3107 3107 3108 3110 3112 3113 3113 3113 3114 3115 3116 3116 3116 3119 3119 3120 3121 3121 3121 3121 3122 3122 3123 3122 3121 3121 3120 3120 3121 3120 3120 3121 3122 3124 3124 3125 3125
3099 3099 3098 3097 3096 3095 3094 3094 3093 3093 3093 3093 3092 3092 3092 3092 3092 3093 3093 3093 3093 3093 3093 3092 3092 3092 3092 3092 3092 3093 3093 3092 3093 3092 3092 3092 3092 3092 3092 3092 3093 3094 3095 3096 3097 3099 3100 3101 3102 3104 3105 3106 3107 3108 3110 3111 3112 3112 3112 3113 3114 3114 3114 3115 3117 3118 3119 3119 3120 3119 3119 3120 3120 3121 3120 3119 3119 3119 3120 3120 3120 3119 3120 3121 3122 3123 3123 3123
3098 3098 3097 3096 3095 3094 3093 3093 3092 3092 3091 3091 3091 3091 3091 3091 3091 3092 3092 3092 3092 3092 3091 3091 3091 3091 3091 3091 3091 3092 3091 3092 3092 3092 3091 3091 3091 3091 3091 3092 3092 3093 3094 3095 3097 3098 3099 3101 3103 3104 3105 3106 3107 3108 3110 3111 3111 3111 3111 3112 3113 3113 3113 3114 3115 3116 3117 3118 3118 3118 3118 3118 3119 3119 3117 3116 3116 3117 3119 3120 3119 3118 3119 3120 3121 3121 3121 3122
3097 3097 3096 3095 3094 3093 3093 3092 3091 3091 3090 3090 3090 3090 3090 3090 3090 3091 3091 3091 3091 3090 3090 3090 3090 3090 3090 3090 3090 3091 3091 3091 3091 3091 3090 3090 3090 3090 3090 3091 3091 3092 3093 3094 3096 3098 3100 3102 3104 3105 3105 3106 3107 3108 3109 3109 3109 3110 3111 3111 3111 3111 3112 3113 3113 3114 3115 3116 3116 3116 3116 3117 3117 3117 3114 3113 3114 3115 3117 3118 3118 3118 3118 3119 3119 3120 3120 3122
3096 3095 3095 3094 3093 3093 3092 3091 3090 3090 3089 3089 3089 3089 3089 3089 3089 3090 3090 3090 3089 3089 3089 3089 3089 3089 3089 3089 3089 3090 3090 3090 3090 3090 3089 3089 3089 3089 3089 3090 3090 3091 3093 3094 3096 3098 3100 3102 3104 3104 3103 3104 3105 3106 3107 3108 3108 3108 3109 3109 3109 3109 3109 3111 3111 3111 3112 3113 3114 3114 3114 3115 3115 3114 3112 3111 3113 3114 3116 3117 3117 3118 3118 3118 3118 3119 3120 3122
3095 3094 3094 3093 3092 3092 3091 3090 3089 3089 3088 3088 3088 3088 3088 3088 3088 3089 3089 3089 3088 3088 3088 3088 3088 3088 3088 3089 3089 3089 3089 3089 3089 3088 3088 3088 3088 3088 3089 3089 3090 3091 3092 3094 3096 3098 3100 3101 3102 3102 3102 3102 3103 3104 3105 3106 3106 3107 3107 3106 3107 3107 3107 3108 3108 3109 3110 3110 3111 3112 3112 3112 3112 3112 3111 3111 3112 3113 3115 3116 3117 3117 3117 3118 3118 3118 3119 3120
3094 3093 3092 3092 3091 3091 3090 3089 3089 3088 3087 3087 3087 3087 3087 3087 3087 3087 3087 3087 3087 3087 3087 3087 3087 3087 3088 3088 3088 3088 3088 3088 3088 3088 3087 3088 3088 3088 3088 3089 3090 3091 3092 3094 3096 3097 3098 3098 3099 3100 3101 3101 3102 3103 3103 3104 3105 3105 3106 3105 3105 3105 3105 3105 3106 3107 3108 3108 3109 3111 3110 3109 3110 3110 3110 3111 3112 3113 3114 3115 3115 3116 3117 3117 3117 3117 3117 3118
3092 3092 3091 3091 3090 3090 3089 3088 3088 3087 3086 3086 3086 3085 3086 3086 3086 3086 3086 3086 3086 3086 3086 3086 3086 3086 3087 3087 3087 3087 3087 3087 3087 3087 3087 3087 3087 3088 3088 3088 3090 3091 3092 3093 3094 3096 3096 3096 3097 3098 3099 3100 3101 3102 3103 3104 3104 3104 3105 3104 3103 3104 3102 3102 3104 3105 3105 3106 3108 3111 3108 3106 3107 3109 3109 3110 3111 3111 3113 3113 3114 3115 3116 3116 3116 3115 3115 3116
3091 3091 3090 3089 3089 3088 3088 3087 3087 3086 3085 3085 3084 3084 3084 3085 3085 3085 3085 3085 3085 3085 3085 3085 3085 3086 3086 3086 3087 3086 3086 3086 3087 3087 3087 3087 3087 3088 3088 3088 3089 3090 3091 3092 3093 3095 3095 3095 3096 3097 3098 3099 3101 3102 3102 3103 3103 3103 3103 3102 3103 3103 3101 3100 3102 3103 3103 3104 3107 3110 3107 3104 3105 3107 3108 3109 3110 3110 3111 3113 3114 3114 3115 3115 3115 3115 3114 3115
3091 3090 3089 3089 3088 3088 3087 3086 3086 3085 3085 3084 3083 3083 3083 3083 3084 3084 3084 3084 3084 3084 3084 3084 3085 3085 3086 3086 3086 3086 3086 3086 3087 3086 3086 3086 3087 3087 3088 3088 3089 3090 3091 3092 3093 3094 3094 3095 3095 3096 3098 3099 3100 3101 3101 3101 3101 3102 3101 3102 3103 3103 3100 3099 3100 3102 3102 3103 3105 3107 3105 3103 3104 3106 3107 3108 3108 3110 3111 3112 3113 3113 3114 3114 3114 3114 3113 3114
3090 3089 3088 3088 3087 3087 3086 3086 3085 3085 3084 3083 3083 3082 3082 3082 3082 3083 3083 3083 3083 3083 3083 3084 3084 3085 3085 3085 3086 3086 3086 3086 3086 3086 3086 3086 3087 3088 3088 3088 3089 3090 3092 3092 3093 3094 3094 3095 3095 3096 3097 3098 3099 3100 3100 3100 3100 3101 3101 3102 3103 3102 3100 3098 3097 3099 3101 3103 3104 3104 3103 3102 3103 3104 3105 3106 3107 3109 3110 3112 3112 3112 3113 3113 3112 3112 3113 3114
3090 3089 3088 3087 3086 3086 3085 3085 3084 3084 3083 3083 3082 3082 3081 3081 3081 3081 3082 3082 3082 3082 3082 3083 3083 3084 3084 3084 3085 3085 3085 3085 3085 3085 3086 3087 3087 3088 3088 3088 3090 3091 3091 3092 3093 3094 3094 3095 3095 3095 3096 3098 3099 3099 3099 3099 3100 3101 3102 3102 3102 3102 3101 3098 3095 3095 3098 3100 3100 3102 3102 3102 3103 3103 3102 3104 3106 3108 3110 3111 3111 3111 3112 3112 3111 3111 3112 3113
3089 3088 3087 3087 3086 3085 3084 3084 3083 3083 3083 3082 3082 3081 3081 3081 3080 3080 3080 3080 3080 3080 3081 3082 3082 3083 3084 3083 3084 3084 3085 3085 3085 3085 3086 3087 3087 3088 3087 3088 3089 3091 3091 3092 3093 3094 3094 3094 3094 3095 3095 3097 3098 3098 3099 3099 3100 3101 3101 3101 3101 3100 3100 3097 3094 3093 3095 3096 3097 3099 3100 3101 3103 3103 3101 3103 3105 3107 3109 3110 3110 3110 3110 3110 3110 3111 3112 3113
3088 3087 3087 3086 3085 3085 3084 3083 3082 3082 3082 3082 3081 3081 3081 3080 3080 3079 3079 3078 3079 3079 3079 3080 3080 3081 3082 3082 3083 3083 3084 3085 3085 3086 3086 3086 3087 3087 3087 3087 3089 3090 3091 3092 3093 3094 3094 3094 3094 3094 3095 3096 3097 3098 3098 3099 3100 3100 3100 3101 3100 3100 3098 3095 3092 3091 3093 3095 3096 3097 3099 3100 3103 3103 3101 3103 3104 3106 3107 3108 3109 3109 3109 3109 3109 3110 3111 3112
3087 3087 3086 3085 3085 3084 3084 3083 3082 3081 3081 3081 3081 3081 3081 3080 3080 3078 3078 3077 3077 3077 3077 3078 3078 3079 3080 3081 3081 3082 3084 3085 3085 3085 3086 3086 3086 3087 3087 3087 3088 3089 3090 3091 3092 3093 3093 3093 3093 3094 3095 3096 3097 3098 3099 3099 3099 3099 3100 3100 3100 3099 3097 3095 3093 3092 3093 3095 3096 3097 3099 3101 3102 3102 3101 3103 3104 3105 3107 3108 3108 3108 3108 3108 3109 3110 3111 3112
3086 3086 3085 3085 3084 3084 3083 3082 3082 3081 3081 3081 3081 3081 3080 3080 3079 3077 3076 3076 3076 3075 3075 3076 3077 3078 3078 3079 3080 3080 3082 3083 3084 3085 3085 3085 3086 3086 3087 3087 3088 3089 3089 3090 3092 3092 3093 3092 3092 3093 3095 3097 3097 3097 3098 3099 3099 3098 3098 3099 3098 3098 3097 3095 3094 3093 3094 3095 3096 3097 3099 3100 3101 3101 3101 3102 3103 3105 3106 3106 3106 3106 3107 3108 3109 3110 3111 3112
3085 3085 3084 3084 3083 3083 3083 3082 3081 3081 3080 3081 3081 3081 3080 3079 3078 3077 3075 3075 3074 3074 3073 3074 3075 3076 3077 3078 3078 3078 3079 3081 3083 3084 3085 3085 3085 3086 3086 3087 3088 3088 3089 3090 3091 3092 3092 3091 3092 3093 3095 3096 3097 3097 3098 3098 3098 3098 3097 3097 3097 3097 3097 3095 3094 3093 3094 3095 3097 3097 3098 3098 3099 3099 3099 3099 3101 3103 3105 3105 3105 3105 3106 3107 3107 3109 3110 3111
3084 3084 3083 3083 3082 3082 3082 3081 3081 3080 3080 3080 3080 3080 3079 3078 3077 3076 3075 3074 3073 3072 3072 3073 3074 3075 3077 3077 3077 3077 3077 3079 3081 3083 3084 3084 3085 3085 3086 3087 3088 3088 3089 3089 3090 3091 3091 3091 3092 3093 3094 3095 3095 3096 3097 3098 3098 3097 3096 3096 3096 3097 3097 3096 3094 3094 3094 3095 3095 3096 3096 3097 3098 3099 3098 3099 3101 3102 3104 3104 3105 3106 3106 3107 3107 3107 3108 3110
3083 3083 3082 3082 3081 3081 3081 3081 3080 3080 3080 3079 3078 3077 3077 3076 3076 3076 3075 3073 3072 3072 3071 3071 3072 3074 3075 3076 3077 3077 3078 3078 3080 3082 3083 3084 3084 3085 3085 3086 3087 3087 3088 3089 3090 3090 3089 3090 3092 3092 3093 3093 3094 3095 3096 3096 3096 3096 3095 3095 3095 3096 3097 3097 3096 3095 3096 3095 3095 3095 3094 3095 3096 3098 3099 3099 3100 3101 3102 3103 3104 3105 3106 3106 3106 3107 3107 3108
3082 3082 3081 3081 3080 3080 3080 3080 3080 3079 3079 3078 3077 3076 3076 3076 3076 3075 3074 3072 3071 3070 3070 3070 3071 3072 3074 3075 3075 3076 3078 3078 3078 3081 3082 3083 3084 3084 3085 3086 3086 3086 3087 3089 3090 3089 3088 3090 3091 3091 3092 3092 3093 3094 3095 3095 3095 3095 3095 3094 3094 3095 3095 3096 3095 3095 3095 3095 3095 3095 3095 3094 3095 3097 3099 3099 3099 3100 3101 3102 3102 3103 3104 3104 3105 3105 3106 3107
3081 3080 3080 3080 3079 3079 3079 3079 3079 3078 3078 3076 3075 3075 3076 3075 3075 3074 3074 3072 3070 3068 3068 3069 3070 3071 3072 3073 3074 3076 3077 3076 3077 3080 3081 3082 3083 3084 3085 3085 3085 3086 3087 3089 3090 3089 3088 3088 3089 3090 3091 3091 3091 3092 3093 3093 3094 3093 3093 3093 3093 3094 3094 3095 3094 3094 3094 3094 3094 3095 3096 3095 3094 3095 3098 3099 3098 3099 3100 3100 3100 3101 3101 3102 3103 3104 3105 3106
3079 3079 3078 3078 3078 3078 3078 3077 3078 3077 3076 3075 3074 3075 3075 3075 3074 3074 3074 3073 3070 3068 3067 3068 3069 3070 3071 3072 3074 3075 3075 3075 3076 3078 3079 3080 3082 3083 3084 3084 3084 3085 3087 3089 3088 3088 3087 3087 3088 3089 3091 3091 3091 3091 3091 3092 3092 3092 3092 3092 3092 3092 3093 3094 3094 3093 3093 3093 3094 3095 3096 3096 3094 3095 3096 3097 3097 3098 3099 3098 3098 3099 3099 3100 3101 3103 3104 3105
3077 3077 3077 3077 3077 3077 3076 3076 3076 3076 3075 3074 3074 3075 3074 3074 3075 3074 3075 3074 3070 3067 3067 3068 3068 3069 3070 3072 3073 3073 3074 3074 3075 3076 3077 3079 3081 3081 3082 3083 3084 3085 3086 3087 3086 3086 3087 3086 3086 3087 3089 3090 3090 3090 3090 3090 3090 3090 3091 3091 3091 3091 3091 3092 3093 3093 3093 3093 3094 3094 3095 3095 3094 3094 3095 3095 3095 3096 3096 3095 3095 3096 3097 3099 3100 3101 3103 3104
3075 3075 3075 3075 3075 3075 3075 3075 3074 3074 3074 3073 3074 3074 3073 3074 3075 3074 3075 3074 3069 3066 3067 3067 3068 3069 3070 3071 3072 3072 3073 3074 3075 3076 3077 3078 3079 3080 3080 3082 3083 3084 3085 3086 3085 3085 3086 3085 3086 3087 3087 3088 3089 3089 3089 3089 3089 3089 3090 3090 3090 3090 3090 3090 3091 3091 3092 3093 3094 3094 3094 3095 3094 3093 3094 3094 3094 3094 3093 3092 3092 3094 3096 3098 3099 3101 3102 3104
3072 3072 3072 3073 3073 3073 3073 3073 3073 3073 3073 3073 3073 3074 3073 3074 3074 3074 3075 3072 3067 3067 3067 3067 3068 3069 3069 3070 3071 3071 3072 3073 3075 3075 3076 3077 3078 3079 3080 3081 3082 3083 3084 3084 3084 3084 3085 3085 3086 3086 3086 3087 3087 3087 3087 3087 3088 3088 3088 3088 3089 3089 3089 3089 3089 3090 3092 3093 3093 3093 3094 3094 3094 3093 3093 3093 3093 3093 3093 3091 3092 3094 3096 3097 3099 3100 3102 3103
3069 3069 3069 3070 3070 3071 3071 3071 3071 3072 3071 3071 3072 3072 3073 3073 3073 3074 3073 3069 3067 3067 3067 3067 3068 3069 3069 3069 3070 3071 3071 3072 3074 3074 3075 3075 3076 3078 3079 3080 3080 3081 3082 3082 3083 3083 3084 3084 3084 3085 3085 3085 3086 3086 3086 3086 3087 3087 3087 3087 3088 3088 3088 3088 3089 3090 3092 3093 3092 3092 3093 3093 3094 3093 3093 3093 3093 3093 3093 3092 3093 3094 3095 3096 3098 3099 3102 3103
3066 3066 3066 3067 3067 3069 3069 3069 3069 3070 3070 3069 3070 3070 3071 3072 3072 3071 3069 3067 3067 3067 3067 3067 3067 3068 3069 3069 3069 3070 3070 3071 3072 3073 3074 3074 3075 3076 3077 3078 3079 3079 3080 3080 3081 3082 3082 3082 3082 3083 3083 3083 3084 3084 3085 3085 3086 3086 3087 3087 3087 3088 3089 3090 3090 3091 3092 3092 3091 3092 3092 3092 3093 3093 3092 3093 3092 3091 3091 3092 3092 3093 3093 3095 3097 3099 3101 3103
3063 3063 3064 3064 3065 3066 3067 3067 3067 3067 3067 3068 3069 3069 3070 3070 3069 3067 3066 3066 3066 3066 3066 3067 3066 3066 3068 3068 3069 3069 3069 3070 3071 3072 3073 3073 3074 3074 3075 3076 3077 3078 3078 3079 3080 3080 3080 3081 3081 3082 3081 3081 3082 3083 3083 3084 3084 3085 3085 3085 3086 3088 3091 3092 3092 3093 3092 3091 3091 3091 3091 3092 3092 3093 3092 3091 3090 3090 3090 3091 3092 3092 3093 3094 3096 3098 3100 3101
3060 3060 3061 3061 3062 3064 3064 3064 3064 3065 3065 3066 3067 3067 3068 3068 3066 3064 3065 3065 3065 3065 3066 3067 3066 3065 3065 3066 3067 3068 3068 3068 3069 3071 3071 3072 3072 3073 3074 3074 3075 3076 3077 3078 3079 3079 3079 3079 3080 3080 3080 3080 3081 3082 3083 3083 3083 3084 3084 3084 3085 3086 3088 3090 3090 3090 3090 3090 3090 3091 3091 3091 3092 3093 3093 3091 3090 3090 3090 3090 3091 3092 3093 3094 3096 3098 3100 3101
3057 3057 3057 3058 3059 3061 3061 3061 3061 3062 3063 3064 3064 3065 3065 3064 3064 3063 3064 3064 3065 3065 3065 3065 3065 3064 3064 3064 3064 3065 3066 3066 3067 3068 3069 3070 3071 3071 3072 3073 3073 3074 3075 3076 3077 3078 3078 3078 3078 3079 3079 3079 3080 3081 3082 3082 3082 3083 3083 3084 3084 3083 3085 3086 3087 3087 3088 3089 3089 3090 3090 3090 3091 3093 3092 3091 3091 3092 3091 3090 3091 3092 3094 3095 3097 3098 3100 3101
3053 3054 3054 3055 3057 3058 3058 3058 3058 3059 3060 3061 3061 3061 3061 3062 3062 3062 3062 3063 3064 3064 3064 3063 3062 3062 3064 3064 3063 3063 3064 3065 3066 3067 3067 3068 3069 3070 3070 3071 3072 3072 3073 3074 3075 3076 3076 3077 3077 3078 3078 3078 3079 3080 3081 3081 3081 3082 3083 3083 3083 3083 3083 3084 3085 3086 3087 3089 3089 3088 3089 3089 3091 3091 3091 3091 3092 3092 3093 3092 3093 3093 3094 3095 3097 3099 3100 3100
3050 3050 3051 3053 3054 3055 3055 3055 3056 3056 3057 3058 3058 3058 3059 3060 3060 3061 3061 3062 3063 3064 3064 3063 3062 3062 3063 3062 3062 3062 3063 3064 3064 3065 3066 3067 3067 3067 3068 3070 3070 3070 3071 3072 3073 3074 3075 3076 3076 3077 3077 3078 3078 3079 3080 3080 3081 3081 3082 3082 3082 3082 3083 3083 3085 3086 3088 3089 3088 3087 3088 3089 3090 3090 3090 3090 3091 3092 3092 3092 3092 3093 3093 3094 3097 3100 3101 3101
3047 3047 3049 3050 3051 3051 3051 3052 3053 3054 3055 3055 3055 3056 3057 3058 3059 3060 3060 3061 3062 3063 3063 3062 3062 3061 3061 3061 3061 3061 3062 3063 3062 3063 3065 3066 3065 3065 3067 3068 3069 3068 3069 3070 3072 3072 3073 3074 3075 3075 3076 3077 3076 3077 3079 3079 3080 3080 3080 3080 3081 3081 3082 3082 3084 3086 3087 3089 3088 3087 3087 3088 3089 3089 3089 3090 3091 3091 3091 3091 3091 3091 3092 3093 3095 3098 3100 3100
3045 3045 3046 3047 3047 3048 3048 3049 3050 3052 3052 3053 3053 3054 3055 3056 3057 3059 3059 3060 3061 3061 3061 3061 3061 3061 3060 3060 3060 3061 3062 3062 3062 3063 3064 3064 3064 3064 3066 3067 3067 3068 3068 3069 3070 3070 3072 3073 3073 3074 3075 3076 3076 3076 3077 3077 3078 3079 3079 3079 3079 3080 3081 3081 3082 3083 3084 3087 3088 3088 3088 3088 3088 3089 3089 3089 3090 3090 3090 3090 3091 3091 3092 3093 3094 3097 3098 3099
3043 3044 3044 3044 3044 3045 3046 3047 3048 3049 3050 3051 3052 3052 3054 3055 3055 3057 3058 3059 3060 3060 3060 3060 3060 3060 3059 3059 3060 3061 3061 3061 3061 3062 3062 3063 3063 3064 3065 3066 3066 3066 3067 3068 3068 3069 3070 3071 3072 3072 3074 3075 3076 3076 3076 3076 3077 3078 3078 3078 3078 3079 3080 3081 3082 3082 3082 3085 3087 3088 3089 3089 3089 3089 3089 3089 3089 3090 3090 3091 3092 3092 3093 3094 3095 3096 3097 3098
3041 3042 3042 3043 3043 3043 3044 3045 3047 3048 3049 3050 3051 3052 3053 3053 3053 3054 3056 3057 3058 3058 3059 3059 3059 3058 3058 3058 3058 3059 3059 3059 3060 3060 3060 3062 3062 3062 3062 3064 3064 3064 3065 3066 3067 3068 3069 3070 3070 3071 3072 3073 3074 3075 3075 3076 3077 3078 3077 3077 3077 3077 3078 3080 3082 3082 3082 3083 3085 3087 3088 3088 3088 3088 3088 3089 3090 3090 3090 3090 3091 3093 3094 3094 3094 3095 3096 3097
3040 3040 3041 3042 3042 3042 3044 3045 3045 3047 3048 3049 3050 3050 3051 3051 3052 3052 3054 3055 3055 3056 3057 3057 3057 3056 3056 3056 3056 3057 3057 3058 3058 3058 3057 3059 3060 3060 3062 3062 3063 3064 3065 3066 3066 3066 3067 3069 3069 3070 3070 3071 3073 3075 3075 3075 3077 3077 3076 3076 3077 3076 3077 3078 3080 3081 3081 3082 3083 3084 3085 3087 3087 3087 3087 3088 3089 3089 3089 3089 3090 3092 3093 3093 3093 3095 3096 3096
3039 3039 3040 3041 3041 3041 3043 3044 3044 3045 3046 3047 3048 3049 3049 3050 3050 3050 3051 3052 3053 3053 3054 3054 3054 3053 3053 3053 3053 3055 3056 3057 3057 3056 3055 3057 3058 3060 3061 3062 3063 3064 3064 3065 3066 3066 3067 3068 3069 3069 3069 3069 3071 3073 3073 3074 3075 3075 3075 3076 3077 3077 3076 3076 3077 3078 3079 3081 3082 3082 3084 3086 3086 3086 3085 3086 3087 3087 3087 3088 3088 3089 3090 3091 3092 3093 3094 3095
3038 3038 3039 3039 3040 3041 3042 3043 3044 3045 3046 3046 3047 3047 3048 3048 3048 3049 3050 3050 3050 3051 3051 3051 3050 3050 3051 3051 3052 3053 3054 3055 3055 3055 3055 3055 3057 3059 3060 3062 3063 3063 3063 3064 3065 3066 3066 3067 3068 3069 3070 3070 3071 3072 3072 3072 3074 3074 3075 3076 3076 3077 3076 3076 3076 3076 3077 3079 3079 3080 3083 3084 3085 3084 3084 3085 3085 3086 3086 3086 3087 3088 3089 3089 3090 3090 3091 3092
3036 3037 3038 3038 3039 3040 3040 3042 3043 3043 3044 3045 3045 3045 3046 3046 3047 3048 3048 3049 3048 3048 3048 3048 3047 3047 3049 3050 3051 3052 3053 3053 3054 3054 3054 3055 3057 3059 3060 3061 3061 3062 3062 3063 3064 3065 3066 3066 3067 3069 3071 3072 3073 3073 3072 3072 3073 3074 3075 3076 3075 3075 3076 3075 3075 3075 3076 3078 3078 3079 3081 3083 3084 3084 3084 3083 3084 3084 3085 3085 3086 3086 3087 3088 3089 3089 3089 3090
3035 3036 3037 3037 3038 3038 3039 3040 3041 3041 3042 3043 3043 3044 3044 3044 3045 3046 3046 3046 3046 3046 3045 3045 3045 3046 3048 3049 3050 3051 3051 3051 3053 3054 3054 3055 3056 3058 3059 3060 3060 3061 3062 3062 3063 3064 3065 3065 3066 3067 3069 3071 3072 3073 3073 3073 3073 3073 3074 3074 3075 3075 3075 3075 3075 3075 3075 3077 3078 3079 3080 3081 3083 3084 3083 3083 3083 3083 3083 3084 3085 3085 3086 3087 3087 3088 3088 3088
3036 3036 3036 3037 3037 3036 3036 3038 3039 3040 3041 3042 3042 3042 3042 3042 3043 3044 3043 3043 3044 3043 3043 3043 3043 3044 3045 3047 3048 3049 3049 3050 3051 3053 3054 3055 3056 3057 3058 3058 3059 3060 3061 3061 3062 3063 3063 3064 3065 3066 3068 3069 3070 3071 3072 3072 3072 3072 3072 3073 3074 3074 3074 3074 3074 3075 3075 3076 3077 3079 3079 3080 3082 3083 3083 3082 3082 3082 3082 3083 3083 3084 3084 3085 3085 3086 3086 3087
3036 3036 3036 3036 3036 3035 3035 3037 3038 3040 3041 3041 3041 3041 3041 3040 3040 3041 3041 3040 3041 3041 3041 3041 3042 3043 3044 3045 3047 3048 3048 3049 3050 3052 3054 3055 3056 3056 3056 3057 3057 3058 3058 3059 3060 3061 3062 3063 3064 3065 3066 3067 3069 3069 3070 3071 3071 3071 3071 3072 3072 3073 3073 3073 3074 3074 3075 3076 3077 3078 3079 3080 3081 3081 3081 3081 3081 3081 3081 3081 3081 3082 3082 3083 3084 3084 3085 3085
3036 3036 3037 3036 3035 3035 3036 3037 3038 3039 3040 3039 3039 3039 3040 3039 3038 3039 3039 3038 3039 3040 3040 3041 3042 3042 3042 3044 3046 3047 3047 3048 3049 3050 3052 3053 3054 3055 3055 3056 3056 3057 3057 3058 3058 3059 3061 3062 3062 3063 3064 3066 3067 3067 3068 3069 3069 3070 3070 3071 3072 3072 3072 3072 3073 3074 3074 3075 3077 3077 3077 3078 3079 3080 3079 3079 3079 3080 3080 3080 3079 3080 3080 3081 3082 3082 3083 3083
3036 3036 3037 3037 3036 3036 3037 3037 3037 3038 3038 3037 3038 3039 3039 3038 3038 3038 3038 3038 3039 3039 3040 3041 3042 3042 3042 3043 3045 3046 3047 3047 3048 3049 3050 3051 3053 3054 3055 3055 3056 3056 3057 3057 3058 3058 3060 3061 3061 3062 3063 3064 3065 3066 3066 3067 3067 3068 3069 3070 3071 3071 3071 3071 3072 3072 3073 3074 3075 3075 3075 3077 3078 3078 3077 3077 3078 3078 3078 3078 3078 3078 3079 3080 3080 3081 3082 3082
3037 3037 3037 3037 3037 3037 3038 3037 3037 3038 3037 3037 3037 3039 3039 3038 3038 3038 3038 3038 3039 3039 3040 3041 3042 3042 3042 3043 3045 3045 3046 3047 3048 3048 3049 3050 3051 3052 3053 3054 3055 3056 3056 3057 3057 3058 3059 3060 3060 3061 3062 3063 3064 3064 3065 3066 3066 3067 3068 3069 3069 3068 3068 3069 3070 3071 3071 3072 3073 3074 3075 3076 3076 3075 3075 3076 3077 3076 3076 3076 3076 3077 3077 3078 3078 3079 3080 3081
3038 3038 3038 3038 3038 3038 3039 3038 3038 3037 3038 3038 3038 3039 3038 3038 3039 3039 3039 3039 3039 3039 3040 3041 3042 3042 3042 3043 3044 3044 3045 3046 3047 3048 3048 3049 3050 3051 3052 3053 3054 3055 3055 3056 3056 3057 3058 3059 3059 3060 3061 3062 3063 3063 3064 3065 3066 3066 3067 3067 3068 3067 3066 3068 3068 3068 3069 3070 3071 3072 3073 3074 3073 3073 3073 3074 3074 3074 3074 3074 3075 3075 3075 3075 3076 3076 3077 3078